Regional Weather Roundup
Issued by NWS

Home | Current Version | Previous Version | Graphics & Text | Print | Product List | Glossary On
Versions: 1 2 3 4 5 6 7 8 9 10 11 12 13 14 15 16 17 18 19 20 21 22 23 24 25 26 27 28 29 30 31 32 33 34 35 36 37 38 39 40 41 42 43 44 45 46 47 48 49 50
000
ASUS45 KBOI 031810
RWRID
WEATHER ROUNDUP FOR IDAHO
NATIONAL WEATHER SERVICE BOISE ID
1100 AM MST TUE MAR 03 2015

NOTE: "FAIR" INDICATES FEW OR NO CLOUDS BELOW 12000 FEET
WITH NO SIGNIFICANT WEATHER AND/OR OBSTRUCTIONS TO VISIBILITY

IDZ012-014-031900-
SOUTHWEST IDAHO


CITY           SKY/WX    TMP DP  RH WIND       PRES   REMARKS
BOISE          SUNNY     39  21  48 NW15      30.03S WCI  31
CALDWELL       SUNNY     39  18  41 NW16      30.08S WCI  30
MOUNTAIN HOME  SUNNY     38  19  45 NW26G35   29.99S WCI  27
$$

IDZ016-017-031900-
SOUTHCENTRAL IDAHO


CITY           SKY/WX    TMP DP  RH WIND       PRES   REMARKS
BURLEY         CLOUDY    27  21  78 VRB6      29.93R WCI  20
JEROME         CLOUDY    30  19  63 W5        29.94R WCI  25
TWIN FALLS     CLOUDY    35  18  49 W23       29.94R WCI  23
$$

IDZ019>023-031900-
SOUTHEAST IDAHO


CITY           SKY/WX    TMP DP  RH WIND       PRES   REMARKS
IDAHO FALLS    SUNNY     23   7  50 NE12      29.93R WCI  12
POCATELLO      MOSUNNY   24  13  62 NE16      29.94R WCI  11
REXBURG        MIX PCPN  21   4  47 NE13      29.92R WCI   9
$$

IDZ006-010-011-018-031-032-031900-
CENTRAL IDAHO MOUNTAINS


CITY           SKY/WX    TMP DP  RH WIND       PRES   REMARKS
MCCALL         MOSUNNY   28  11  48 N10G21    29.95R WCI  19
HAILEY         MOSUNNY   28  19  69 SE12G17   29.89R WCI  18
STANLEY          N/A     25   4  40 N7        29.87S WCI  17
SALMON         PTSUNNY   23   1  39 NW5       30.03S WCI  17
CHALLIS        MOSUNNY   28   7  41 N9        29.93S WCI  19
$$

IDZ002-004-006-007-026-031900-
NORTHERN IDAHO


CITY           SKY/WX    TMP DP  RH WIND       PRES   REMARKS
LEWISTON       MOSUNNY   36  23  59 SW5       30.21R WCI  32
LOWELL           N/A     34  16  47 VRB5      30.21R WCI  30
COEUR D`ALENE  SUNNY     30  12  47 NE6       30.17F WCI  24
MULLAN PASS    CLOUDY    11   8  88 CALM      29.94R FOG
$$


USA.gov is the U.S. government's official web portal to all federal, state and local government web resources and services.